This is the latest recevied weather packets stored in our database for station/object VR2MW-X. If no packets are shown the sender has not sent any weather packets the latest 10 day(s).
| Time | Temp. | Humidity | Pressure | Rain* | Wind** | Luminosity | Snow |
|---|---|---|---|---|---|---|---|
| 1777870648 | 26.11° C | 62% | 1015.6 hPa | - | - | - | - |
| 1777870037 | 26.11° C | 61% | 1015.7 hPa | - | - | - | - |
| 1777869427 | 26.11° C | 60% | 1015.7 hPa | - | - | - | - |
| 1777868816 | 25° C | 65% | 1016 hPa | - | - | - | - |
| 1777868206 | 25° C | 65% | 1016 hPa | - | - | - | - |
| 1777867595 | 25° C | 67% | 1016.1 hPa | - | - | - | - |
| 1777866374 | 25° C | 67% | 1016.2 hPa | - | - | - | - |
| 1777865764 | 25° C | 63% | 1016 hPa | - | - | - | - |
| 1777865153 | 25° C | 64% | 1016.1 hPa | - | - | - | - |
| 1777864543 | 25° C | 63% | 1016.2 hPa | - | - | - | - |
| 1777863932 | 25° C | 67% | 1016.5 hPa | - | - | - | - |
| 1777863321 | 25° C | 65% | 1016.6 hPa | - | - | - | - |
| 1777862709 | 25° C | 64% | 1016.2 hPa | - | - | - | - |
| 1777862098 | 23.89° C | 67% | 1016.5 hPa | - | - | - | - |
| 1777861488 | 23.89° C | 69% | 1016.3 hPa | - | - | - | - |
| 1777860878 | 23.89° C | 67% | 1016.3 hPa | - | - | - | - |
| 1777860267 | 23.89° C | 67% | 1016.2 hPa | - | - | - | - |
| 1777859657 | 22.78° C | 80% | 1016.5 hPa | - | - | - | - |
| 1777859047 | 23.89° C | 75% | 1016.7 hPa | - | - | - | - |
| 1777858436 | 22.78° C | 68% | 1016.3 hPa | - | - | - | - |
| 1777857825 | 22.78° C | 71% | 1016.1 hPa | - | - | - | - |
| 1777857215 | 22.78° C | 77% | 1015.7 hPa | - | - | - | - |
| 1777856604 | 22.22° C | 83% | 1015.7 hPa | - | - | - | - |
| 1777855994 | 22.22° C | 85% | 1015.7 hPa | - | - | - | - |
| 1777855383 | 22.22° C | 96% | 1016.1 hPa | - | - | - | - |
* Rain since midnight (hover to see other rain measurements)
** Current wind speed in m/s (hover to see current wind gust speed)